This is the latest recevied weather packets stored in our database for station/object RN1M-13. If no packets are shown the sender has not sent any weather packets the latest 10 day(s).
| Time | Temp. | Humidity | Pressure | Rain* | Wind** | Luminosity | Snow |
|---|---|---|---|---|---|---|---|
| 1777539842 | 7.78° C | 100% | 1019.8 hPa | - | - | - | - |
| 1777538942 | 8.33° C | 100% | 1019.9 hPa | - | - | - | - |
| 1777538042 | 8.89° C | 100% | 1019.8 hPa | - | - | - | - |
| 1777537142 | 8.89° C | 99% | 1019.9 hPa | - | - | - | - |
| 1777536244 | 8.33° C | 100% | 1020.1 hPa | - | - | - | - |
| 1777534447 | 7.22° C | 100% | 1020.1 hPa | - | - | - | - |
| 1777533547 | 7.78° C | 100% | 1020 hPa | - | - | - | - |
| 1777532647 | 7.78° C | 100% | 1019.8 hPa | - | - | - | - |
| 1777531747 | 7.78° C | 100% | 1019.7 hPa | - | - | - | - |
| 1777530847 | 6.67° C | 100% | 1020 hPa | - | - | - | - |
| 1777529947 | 8.33° C | 100% | 1019.9 hPa | - | - | - | - |
| 1777529047 | 6.11° C | 100% | 1020 hPa | - | - | - | - |
| 1777528147 | 6.11° C | 100% | 1019.8 hPa | - | - | - | - |
| 1777527247 | 5.56° C | 100% | 1019.9 hPa | - | - | - | - |
| 1777526347 | 5.56° C | 100% | 1020 hPa | - | - | - | - |
| 1777525449 | 5.56° C | 100% | 1020.2 hPa | - | - | - | - |
| 1777524550 | 4.44° C | 100% | 1020.1 hPa | - | - | - | - |
| 1777523650 | 3.89° C | 100% | 1020 hPa | - | - | - | - |
| 1777522750 | 5° C | 100% | 1020 hPa | - | - | - | - |
| 1777521850 | 3.89° C | 100% | 1020.1 hPa | - | - | - | - |
| 1777520950 | 4.44° C | 100% | 1020 hPa | - | - | - | - |
| 1777520050 | 3.89° C | 100% | 1020 hPa | - | - | - | - |
| 1777519150 | 3.89° C | 100% | 1020 hPa | - | - | - | - |
| 1777518250 | 3.89° C | 100% | 1020 hPa | - | - | - | - |
| 1777517350 | 3.33° C | 100% | 1020.2 hPa | - | - | - | - |
* Rain since midnight (hover to see other rain measurements)
** Current wind speed in m/s (hover to see current wind gust speed)